Year,Month,Day,Hour,Minute,Value (Times are PST for temperature in C)
2015,08,11,00,00,19.50
2015,08,11,00,01,19.40
2015,08,11,00,02,19.40
2015,08,11,00,03,19.40
2015,08,11,00,04,19.40
2015,08,11,00,05,19.40
2015,08,11,00,06,19.40
2015,08,11,00,07,19.40
2015,08,11,00,08,19.40
2015,08,11,00,09,19.40
2015,08,11,00,10,19.30
2015,08,11,00,11,19.30
2015,08,11,00,12,19.30
2015,08,11,00,13,19.20
2015,08,11,00,14,19.20
2015,08,11,00,15,19.10
2015,08,11,00,16,19.10
2015,08,11,00,17,19.10
2015,08,11,00,18,19.10
2015,08,11,00,19,19.10
2015,08,11,00,20,19.10
2015,08,11,00,21,19.10
2015,08,11,00,22,19.10
2015,08,11,00,23,19.10
2015,08,11,00,24,19.10
2015,08,11,00,25,19.10
2015,08,11,00,26,19.10
2015,08,11,00,27,19.00
2015,08,11,00,28,19.00
2015,08,11,00,29,19.00
2015,08,11,00,30,19.00
2015,08,11,00,31,18.90
2015,08,11,00,32,18.90
2015,08,11,00,33,19.00
2015,08,11,00,34,19.00
2015,08,11,00,35,19.00
2015,08,11,00,36,19.00
2015,08,11,00,37,19.00
2015,08,11,00,38,19.00
2015,08,11,00,39,19.00
2015,08,11,00,40,19.00
2015,08,11,00,41,19.10
2015,08,11,00,42,19.10
2015,08,11,00,43,19.10
2015,08,11,00,44,19.10
2015,08,11,00,45,19.10
2015,08,11,00,46,19.20
2015,08,11,00,47,19.20
2015,08,11,00,48,19.20
2015,08,11,00,49,19.20
2015,08,11,00,50,19.20
2015,08,11,00,51,19.20
2015,08,11,00,52,19.20
2015,08,11,00,53,19.20
2015,08,11,00,54,19.20
2015,08,11,00,55,19.10
2015,08,11,00,56,19.10
2015,08,11,00,57,19.10
2015,08,11,00,58,19.10
2015,08,11,00,59,19.00
2015,08,11,01,00,19.00
2015,08,11,01,01,18.90
2015,08,11,01,02,18.90
2015,08,11,01,03,18.90
2015,08,11,01,04,18.90
2015,08,11,01,05,18.90
2015,08,11,01,06,18.80
2015,08,11,01,07,18.80
2015,08,11,01,08,18.80
2015,08,11,01,09,18.80
2015,08,11,01,10,18.80
2015,08,11,01,11,18.80
2015,08,11,01,12,18.70
2015,08,11,01,13,18.70
2015,08,11,01,14,18.70
2015,08,11,01,15,18.70
2015,08,11,01,16,18.70
2015,08,11,01,17,18.70
2015,08,11,01,18,18.60
2015,08,11,01,19,18.60
2015,08,11,01,20,18.60
2015,08,11,01,21,18.50
2015,08,11,01,22,18.50
2015,08,11,01,23,18.40
2015,08,11,01,24,18.40
2015,08,11,01,25,18.40
2015,08,11,01,26,18.30
2015,08,11,01,27,18.30
2015,08,11,01,28,18.30
2015,08,11,01,29,18.30
2015,08,11,01,30,18.30
2015,08,11,01,31,18.30
2015,08,11,01,32,18.30
2015,08,11,01,33,18.30
2015,08,11,01,34,18.30
2015,08,11,01,35,18.30
2015,08,11,01,36,18.30
2015,08,11,01,37,18.30
2015,08,11,01,38,18.30
2015,08,11,01,39,18.40
2015,08,11,01,40,18.40
2015,08,11,01,41,18.40
2015,08,11,01,42,18.30
2015,08,11,01,43,18.30
2015,08,11,01,44,18.30
2015,08,11,01,45,18.30
2015,08,11,01,46,18.30
2015,08,11,01,47,18.30
2015,08,11,01,48,18.30
2015,08,11,01,49,18.30
2015,08,11,01,50,18.30
2015,08,11,01,51,18.20
2015,08,11,01,52,18.20
2015,08,11,01,53,18.20
2015,08,11,01,54,18.20
2015,08,11,01,55,18.20
2015,08,11,01,56,18.20
2015,08,11,01,57,18.20
2015,08,11,01,58,18.20
2015,08,11,01,59,18.20
2015,08,11,02,00,18.20
2015,08,11,02,01,18.20
2015,08,11,02,02,18.20
2015,08,11,02,03,18.20
2015,08,11,02,04,18.20
2015,08,11,02,05,18.20
2015,08,11,02,06,18.20
2015,08,11,02,07,18.20
2015,08,11,02,08,18.20
2015,08,11,02,09,18.20
2015,08,11,02,10,18.10
2015,08,11,02,11,18.00
2015,08,11,02,12,18.00
2015,08,11,02,13,17.90
2015,08,11,02,14,17.80
2015,08,11,02,15,17.80
2015,08,11,02,16,17.70
2015,08,11,02,17,17.70
2015,08,11,02,18,17.60
2015,08,11,02,19,17.60
2015,08,11,02,20,17.60
2015,08,11,02,21,17.50
2015,08,11,02,22,17.50
2015,08,11,02,23,17.50
2015,08,11,02,24,17.40
2015,08,11,02,25,17.40
2015,08,11,02,26,17.40
2015,08,11,02,27,17.40
2015,08,11,02,28,17.40
2015,08,11,02,29,17.40
2015,08,11,02,30,17.40
2015,08,11,02,31,17.40
2015,08,11,02,32,17.30
2015,08,11,02,33,17.30
2015,08,11,02,34,17.30
2015,08,11,02,35,17.30
2015,08,11,02,36,17.30
2015,08,11,02,37,17.30
2015,08,11,02,38,17.30
2015,08,11,02,39,17.30
2015,08,11,02,40,17.30
2015,08,11,02,41,17.30
2015,08,11,02,42,17.30
2015,08,11,02,43,17.30
2015,08,11,02,44,17.30
2015,08,11,02,45,17.30
2015,08,11,02,46,17.30
2015,08,11,02,47,17.30
2015,08,11,02,48,17.30
2015,08,11,02,49,17.30
2015,08,11,02,50,17.30
2015,08,11,02,51,17.30
2015,08,11,02,52,17.20
2015,08,11,02,53,17.20
2015,08,11,02,54,17.20
2015,08,11,02,55,17.20
2015,08,11,02,56,17.20
2015,08,11,02,57,17.30
2015,08,11,02,58,17.30
2015,08,11,02,59,17.30
2015,08,11,03,00,17.20
2015,08,11,03,01,17.20
2015,08,11,03,02,17.20
2015,08,11,03,03,17.20
2015,08,11,03,04,17.20
2015,08,11,03,05,17.10
2015,08,11,03,06,17.10
2015,08,11,03,07,17.10
2015,08,11,03,08,17.10
2015,08,11,03,09,17.00
2015,08,11,03,10,17.00
2015,08,11,03,11,17.00
2015,08,11,03,12,17.00
2015,08,11,03,13,17.10
2015,08,11,03,14,17.10
2015,08,11,03,15,17.10
2015,08,11,03,16,17.10
2015,08,11,03,17,17.10
2015,08,11,03,18,17.10
2015,08,11,03,19,17.10
2015,08,11,03,20,17.10
2015,08,11,03,21,17.10
2015,08,11,03,22,17.10
2015,08,11,03,23,17.10
2015,08,11,03,24,17.10
2015,08,11,03,25,17.10
2015,08,11,03,26,17.10
2015,08,11,03,27,17.10
2015,08,11,03,28,17.10
2015,08,11,03,29,17.10
2015,08,11,03,30,17.10
2015,08,11,03,31,17.10
2015,08,11,03,32,17.00
2015,08,11,03,33,17.00
2015,08,11,03,34,17.00
2015,08,11,03,35,17.00
2015,08,11,03,36,17.00
2015,08,11,03,37,16.90
2015,08,11,03,38,16.90
2015,08,11,03,39,16.90
2015,08,11,03,40,16.90
2015,08,11,03,41,16.90
2015,08,11,03,42,16.90
2015,08,11,03,43,16.80
2015,08,11,03,44,16.80
2015,08,11,03,45,16.80
2015,08,11,03,46,16.80
2015,08,11,03,47,16.80
2015,08,11,03,48,16.80
2015,08,11,03,49,16.80
2015,08,11,03,50,16.80
2015,08,11,03,51,16.80
2015,08,11,03,52,16.80
2015,08,11,03,53,16.80
2015,08,11,03,54,16.70
2015,08,11,03,55,16.70
2015,08,11,03,56,16.70
2015,08,11,03,57,16.70
2015,08,11,03,58,16.70
2015,08,11,03,59,16.70
2015,08,11,04,00,16.70
2015,08,11,04,01,16.60
2015,08,11,04,02,16.60
2015,08,11,04,03,16.60
2015,08,11,04,04,16.60
2015,08,11,04,05,16.60
2015,08,11,04,06,16.60
2015,08,11,04,07,16.60
2015,08,11,04,08,16.60
2015,08,11,04,09,16.60
2015,08,11,04,10,16.60
2015,08,11,04,11,16.60
2015,08,11,04,12,16.60
2015,08,11,04,13,16.60
2015,08,11,04,14,16.60
2015,08,11,04,15,16.60
2015,08,11,04,16,16.60
2015,08,11,04,17,16.60
2015,08,11,04,18,16.50
2015,08,11,04,19,16.50
2015,08,11,04,20,16.50
2015,08,11,04,21,16.50
2015,08,11,04,22,16.40
2015,08,11,04,23,16.40
2015,08,11,04,24,16.40
2015,08,11,04,25,16.40
2015,08,11,04,26,16.40
2015,08,11,04,27,16.40
2015,08,11,04,28,16.40
2015,08,11,04,29,16.40
2015,08,11,04,30,16.40
2015,08,11,04,31,16.40
2015,08,11,04,32,16.40
2015,08,11,04,33,16.40
2015,08,11,04,34,16.40
2015,08,11,04,35,16.40
2015,08,11,04,36,16.40
2015,08,11,04,37,16.40
2015,08,11,04,38,16.40
2015,08,11,04,39,16.40
2015,08,11,04,40,16.40
2015,08,11,04,41,16.40
2015,08,11,04,42,16.40
2015,08,11,04,43,16.40
2015,08,11,04,44,16.30
2015,08,11,04,45,16.30
2015,08,11,04,46,16.30
2015,08,11,04,47,16.30
2015,08,11,04,48,16.30
2015,08,11,04,49,16.30
2015,08,11,04,50,16.30
2015,08,11,04,51,16.30
2015,08,11,04,52,16.30
2015,08,11,04,53,16.30
2015,08,11,04,54,16.30
2015,08,11,04,55,16.30
2015,08,11,04,56,16.20
2015,08,11,04,57,16.20
2015,08,11,04,58,16.20
2015,08,11,04,59,16.20
2015,08,11,05,00,16.20
2015,08,11,05,01,16.20
2015,08,11,05,02,16.20
2015,08,11,05,03,16.20
2015,08,11,05,04,16.20
2015,08,11,05,05,16.20
2015,08,11,05,06,16.30
2015,08,11,05,07,16.30
2015,08,11,05,08,16.30
2015,08,11,05,09,16.30
2015,08,11,05,10,16.30
2015,08,11,05,11,16.30
2015,08,11,05,12,16.30
2015,08,11,05,13,16.30
2015,08,11,05,14,16.30
2015,08,11,05,15,16.30
2015,08,11,05,16,16.30
2015,08,11,05,17,16.30
2015,08,11,05,18,16.30
2015,08,11,05,19,16.30
2015,08,11,05,20,16.30
2015,08,11,05,21,16.20
2015,08,11,05,22,16.20
2015,08,11,05,23,16.20
2015,08,11,05,24,16.20
2015,08,11,05,25,16.20
2015,08,11,05,26,16.20
2015,08,11,05,27,16.20
2015,08,11,05,28,16.10
2015,08,11,05,29,16.10
2015,08,11,05,30,16.10
2015,08,11,05,31,16.10
2015,08,11,05,32,16.10
2015,08,11,05,33,16.10
2015,08,11,05,34,16.00
2015,08,11,05,35,16.00
2015,08,11,05,36,16.00
2015,08,11,05,37,16.00
2015,08,11,05,38,16.00
2015,08,11,05,39,16.00
2015,08,11,05,40,15.90
2015,08,11,05,41,15.90
2015,08,11,05,42,15.90
2015,08,11,05,43,15.90
2015,08,11,05,44,16.00
2015,08,11,05,45,16.00
2015,08,11,05,46,15.90
2015,08,11,05,47,15.90
2015,08,11,05,48,15.90
2015,08,11,05,49,15.90
2015,08,11,05,50,15.90
2015,08,11,05,51,15.90
2015,08,11,05,52,15.90
2015,08,11,05,53,15.90
2015,08,11,05,54,15.90
2015,08,11,05,55,15.90
2015,08,11,05,56,15.90
2015,08,11,05,57,15.90
2015,08,11,05,58,15.90
2015,08,11,05,59,15.90
2015,08,11,06,00,15.90
2015,08,11,06,01,15.90
2015,08,11,06,02,15.90
2015,08,11,06,03,15.90
2015,08,11,06,04,15.90
2015,08,11,06,05,15.90
2015,08,11,06,06,15.90
2015,08,11,06,07,15.90
2015,08,11,06,08,15.90
2015,08,11,06,09,15.90
2015,08,11,06,10,15.90
2015,08,11,06,11,15.90
2015,08,11,06,12,15.80
2015,08,11,06,13,15.80
2015,08,11,06,14,15.80
2015,08,11,06,15,15.80
2015,08,11,06,16,15.80
2015,08,11,06,17,15.90
2015,08,11,06,18,15.90
2015,08,11,06,19,15.90
2015,08,11,06,20,15.90
2015,08,11,06,21,15.90
2015,08,11,06,22,15.90
2015,08,11,06,23,15.90
2015,08,11,06,24,15.90
2015,08,11,06,25,15.90
2015,08,11,06,26,15.90
2015,08,11,06,27,15.90
2015,08,11,06,28,15.90
2015,08,11,06,29,15.90
2015,08,11,06,30,15.90
2015,08,11,06,31,15.90
2015,08,11,06,32,15.90
2015,08,11,06,33,15.80
2015,08,11,06,34,15.80
2015,08,11,06,35,15.80
2015,08,11,06,36,15.80
2015,08,11,06,37,15.80
2015,08,11,06,38,15.80
2015,08,11,06,39,15.90
2015,08,11,06,40,15.90
2015,08,11,06,41,15.90
2015,08,11,06,42,15.90
2015,08,11,06,43,15.90
2015,08,11,06,44,15.90
2015,08,11,06,45,16.00
2015,08,11,06,46,16.00
2015,08,11,06,47,16.00
2015,08,11,06,48,16.00
2015,08,11,06,49,16.00
2015,08,11,06,50,16.00
2015,08,11,06,51,16.00
2015,08,11,06,52,16.00
2015,08,11,06,53,16.10
2015,08,11,06,54,16.10
2015,08,11,06,55,16.10
2015,08,11,06,56,16.10
2015,08,11,06,57,16.10
2015,08,11,06,58,16.10
2015,08,11,06,59,16.10
2015,08,11,07,00,16.20
2015,08,11,07,01,16.20
2015,08,11,07,02,16.20
2015,08,11,07,03,16.20
2015,08,11,07,04,16.20
2015,08,11,07,05,16.30
2015,08,11,07,06,16.30
2015,08,11,07,07,16.30
2015,08,11,07,08,16.40
2015,08,11,07,09,16.40
2015,08,11,07,10,16.40
2015,08,11,07,11,16.40
2015,08,11,07,12,16.50
2015,08,11,07,13,16.50
2015,08,11,07,14,16.60
2015,08,11,07,15,16.60
2015,08,11,07,16,16.60
2015,08,11,07,17,16.70
2015,08,11,07,18,16.70
2015,08,11,07,19,16.70
2015,08,11,07,20,16.80
2015,08,11,07,21,16.80
2015,08,11,07,22,16.80
2015,08,11,07,23,16.90
2015,08,11,07,24,16.90
2015,08,11,07,25,16.90
2015,08,11,07,26,16.90
2015,08,11,07,27,16.90
2015,08,11,07,28,17.00
2015,08,11,07,29,17.00
2015,08,11,07,30,17.00
2015,08,11,07,31,17.00
2015,08,11,07,32,17.00
2015,08,11,07,33,17.10
2015,08,11,07,34,17.10
2015,08,11,07,35,17.10
2015,08,11,07,36,17.20
2015,08,11,07,37,17.20
2015,08,11,07,38,17.20
2015,08,11,07,39,17.30
2015,08,11,07,40,17.30
2015,08,11,07,41,17.30
2015,08,11,07,42,17.30
2015,08,11,07,43,17.40
2015,08,11,07,44,17.40
2015,08,11,07,45,17.50
2015,08,11,07,46,17.60
2015,08,11,07,47,17.60
2015,08,11,07,48,17.70
2015,08,11,07,49,17.70
2015,08,11,07,50,17.80
2015,08,11,07,51,17.80
2015,08,11,07,52,17.90
2015,08,11,07,53,17.90
2015,08,11,07,54,17.90
2015,08,11,07,55,17.90
2015,08,11,07,56,17.90
2015,08,11,07,57,18.00
2015,08,11,07,58,18.00
2015,08,11,07,59,18.00
2015,08,11,08,00,18.10
2015,08,11,08,01,18.10
2015,08,11,08,02,18.10
2015,08,11,08,03,18.20
2015,08,11,08,04,18.20
2015,08,11,08,05,18.20
2015,08,11,08,06,18.20
2015,08,11,08,07,18.20
2015,08,11,08,08,18.10
2015,08,11,08,09,18.10
2015,08,11,08,10,18.10
2015,08,11,08,11,18.00
2015,08,11,08,12,18.00
2015,08,11,08,13,18.00
2015,08,11,08,14,18.00
2015,08,11,08,15,18.00
2015,08,11,08,16,18.10
2015,08,11,08,17,18.10
2015,08,11,08,18,18.10
2015,08,11,08,19,18.20
2015,08,11,08,20,18.20
2015,08,11,08,21,18.20
2015,08,11,08,22,18.30
2015,08,11,08,23,18.30
2015,08,11,08,24,18.40
2015,08,11,08,25,18.50
2015,08,11,08,26,18.60
2015,08,11,08,27,18.60
2015,08,11,08,28,18.70
2015,08,11,08,29,18.80
2015,08,11,08,30,18.80
2015,08,11,08,31,18.90
2015,08,11,08,32,19.00
2015,08,11,08,33,19.10
2015,08,11,08,34,19.20
2015,08,11,08,35,19.30
2015,08,11,08,36,19.30
2015,08,11,08,37,19.40
2015,08,11,08,38,19.40
2015,08,11,08,39,19.50
2015,08,11,08,40,19.60
2015,08,11,08,41,19.70
2015,08,11,08,42,19.80
2015,08,11,08,43,19.90
2015,08,11,08,44,20.00
2015,08,11,08,45,20.10
2015,08,11,08,46,20.20
2015,08,11,08,47,20.30
2015,08,11,08,48,20.50
2015,08,11,08,49,20.60
2015,08,11,08,50,20.70
2015,08,11,08,51,20.80
2015,08,11,08,52,21.00
2015,08,11,08,53,21.10
2015,08,11,08,54,21.10
2015,08,11,08,55,21.20
2015,08,11,08,56,21.30
2015,08,11,08,57,21.30
2015,08,11,08,58,21.40
2015,08,11,08,59,21.50
2015,08,11,09,00,21.50
2015,08,11,09,01,21.60
2015,08,11,09,02,21.60
2015,08,11,09,03,21.60
2015,08,11,09,04,21.70
2015,08,11,09,05,21.70
2015,08,11,09,06,21.70
2015,08,11,09,07,21.80
2015,08,11,09,08,21.80
2015,08,11,09,09,21.80
2015,08,11,09,10,21.80
2015,08,11,09,11,21.80
2015,08,11,09,12,21.80
2015,08,11,09,13,21.80
2015,08,11,09,14,21.80
2015,08,11,09,15,21.90
2015,08,11,09,16,21.90
2015,08,11,09,17,21.90
2015,08,11,09,18,22.00
2015,08,11,09,19,22.00
2015,08,11,09,20,22.00
2015,08,11,09,21,22.00
2015,08,11,09,22,22.00
2015,08,11,09,23,21.90
2015,08,11,09,24,21.90
2015,08,11,09,25,21.90
2015,08,11,09,26,21.90
2015,08,11,09,27,21.90
2015,08,11,09,28,21.90
2015,08,11,09,29,21.90
2015,08,11,09,30,21.90
2015,08,11,09,31,21.90
2015,08,11,09,32,21.90
2015,08,11,09,33,21.90
2015,08,11,09,34,22.00
2015,08,11,09,35,22.00
2015,08,11,09,36,22.00
2015,08,11,09,37,22.00
2015,08,11,09,38,22.00
2015,08,11,09,39,21.90
2015,08,11,09,40,21.90
2015,08,11,09,41,21.80
2015,08,11,09,42,21.80
2015,08,11,09,43,21.70
2015,08,11,09,44,21.70
2015,08,11,09,45,21.70
2015,08,11,09,46,21.70
2015,08,11,09,47,21.70
2015,08,11,09,48,21.70
2015,08,11,09,49,21.70
2015,08,11,09,50,21.70
2015,08,11,09,51,21.70
2015,08,11,09,52,21.70
2015,08,11,09,53,21.70
2015,08,11,09,54,21.70
2015,08,11,09,55,21.80
2015,08,11,09,56,21.80
2015,08,11,09,57,21.80
2015,08,11,09,58,21.70
2015,08,11,09,59,21.80
2015,08,11,10,00,21.80
2015,08,11,10,01,21.80
2015,08,11,10,02,21.80
2015,08,11,10,03,21.80
2015,08,11,10,04,21.80
2015,08,11,10,05,21.80
2015,08,11,10,06,21.90
2015,08,11,10,07,21.90
2015,08,11,10,08,22.00
2015,08,11,10,09,22.00
2015,08,11,10,10,22.10
2015,08,11,10,11,22.20
2015,08,11,10,12,22.30
2015,08,11,10,13,22.30
2015,08,11,10,14,22.40
2015,08,11,10,15,22.40
2015,08,11,10,16,22.40
2015,08,11,10,17,22.50
2015,08,11,10,18,22.50
2015,08,11,10,19,22.50
2015,08,11,10,20,22.60
2015,08,11,10,21,22.70
2015,08,11,10,22,22.70
2015,08,11,10,23,22.80
2015,08,11,10,24,22.80
2015,08,11,10,25,22.90
2015,08,11,10,26,22.90
2015,08,11,10,27,23.00
2015,08,11,10,28,23.10
2015,08,11,10,29,23.20
2015,08,11,10,30,23.30
2015,08,11,10,31,23.30
2015,08,11,10,32,23.40
2015,08,11,10,33,23.40
2015,08,11,10,34,23.40
2015,08,11,10,35,23.40
2015,08,11,10,36,23.50
2015,08,11,10,37,23.60
2015,08,11,10,38,23.60
2015,08,11,10,39,23.70
2015,08,11,10,40,23.70
2015,08,11,10,41,23.80
2015,08,11,10,42,23.80
2015,08,11,10,43,23.90
2015,08,11,10,44,23.90
2015,08,11,10,45,23.90
2015,08,11,10,46,23.90
2015,08,11,10,47,23.90
2015,08,11,10,48,23.90
2015,08,11,10,49,23.90
2015,08,11,10,50,24.00
2015,08,11,10,51,24.00
2015,08,11,10,52,24.10
2015,08,11,10,53,24.10
2015,08,11,10,54,24.00
2015,08,11,10,55,24.00
2015,08,11,10,56,24.10
2015,08,11,10,57,24.10
2015,08,11,10,58,24.10
2015,08,11,10,59,24.20
2015,08,11,11,00,24.20
2015,08,11,11,01,24.30
2015,08,11,11,02,24.30
2015,08,11,11,03,24.30
2015,08,11,11,04,24.30
2015,08,11,11,05,24.40
2015,08,11,11,06,24.40
2015,08,11,11,07,24.50
2015,08,11,11,08,24.50
2015,08,11,11,09,24.50
2015,08,11,11,10,24.50
2015,08,11,11,11,24.60
2015,08,11,11,12,24.60
2015,08,11,11,13,24.70
2015,08,11,11,14,24.70
2015,08,11,11,15,24.80
2015,08,11,11,16,24.80
2015,08,11,11,17,24.90
2015,08,11,11,18,25.00
2015,08,11,11,19,25.00
2015,08,11,11,20,25.10
2015,08,11,11,21,25.10
2015,08,11,11,22,25.00
2015,08,11,11,23,25.00
2015,08,11,11,24,25.00
2015,08,11,11,25,24.90
2015,08,11,11,26,24.80
2015,08,11,11,27,24.80
2015,08,11,11,28,24.80
2015,08,11,11,29,24.80
2015,08,11,11,30,24.80
2015,08,11,11,31,24.80
2015,08,11,11,32,24.70
2015,08,11,11,33,24.70
2015,08,11,11,34,24.60
2015,08,11,11,35,24.60
2015,08,11,11,36,24.60
2015,08,11,11,37,24.60
2015,08,11,11,38,24.60
2015,08,11,11,39,24.70
2015,08,11,11,40,24.70
2015,08,11,11,41,24.70
2015,08,11,11,42,24.70
2015,08,11,11,43,24.70
2015,08,11,11,44,24.70
2015,08,11,11,45,24.70
2015,08,11,11,46,24.60
2015,08,11,11,47,24.60
2015,08,11,11,48,24.60
2015,08,11,11,49,24.60
2015,08,11,11,50,24.60
2015,08,11,11,51,24.60
2015,08,11,11,52,24.60
2015,08,11,11,53,24.60
2015,08,11,11,54,24.60
2015,08,11,11,55,24.70
2015,08,11,11,56,24.70
2015,08,11,11,57,24.70
2015,08,11,11,58,24.70
2015,08,11,11,59,24.70
2015,08,11,12,00,24.70
2015,08,11,12,01,24.70
2015,08,11,12,02,24.70
2015,08,11,12,03,24.70
2015,08,11,12,04,24.70
2015,08,11,12,05,24.70
2015,08,11,12,06,24.70
2015,08,11,12,07,24.70
2015,08,11,12,08,24.70
2015,08,11,12,09,24.60
2015,08,11,12,10,24.60
2015,08,11,12,11,24.60
2015,08,11,12,12,24.70
2015,08,11,12,13,24.70
2015,08,11,12,14,24.70
2015,08,11,12,15,24.80
2015,08,11,12,16,24.80
2015,08,11,12,17,24.80
2015,08,11,12,18,24.80
2015,08,11,12,19,24.80
2015,08,11,12,20,24.80
2015,08,11,12,21,24.80
2015,08,11,12,22,24.80
2015,08,11,12,23,24.80
2015,08,11,12,24,24.80
2015,08,11,12,25,24.80
2015,08,11,12,26,24.90
2015,08,11,12,27,24.90
2015,08,11,12,28,24.90
2015,08,11,12,29,24.90
2015,08,11,12,30,24.90
2015,08,11,12,31,24.80
2015,08,11,12,32,24.90
2015,08,11,12,33,25.00
2015,08,11,12,34,25.00
2015,08,11,12,35,25.10
2015,08,11,12,36,25.20
2015,08,11,12,37,25.20
2015,08,11,12,38,25.30
2015,08,11,12,39,25.30
2015,08,11,12,40,25.20
2015,08,11,12,41,25.20
2015,08,11,12,42,25.30
2015,08,11,12,43,25.30
2015,08,11,12,44,25.30
2015,08,11,12,45,25.30
2015,08,11,12,46,25.20
2015,08,11,12,47,25.20
2015,08,11,12,48,25.20
2015,08,11,12,49,25.30
2015,08,11,12,50,25.30
2015,08,11,12,51,25.40
2015,08,11,12,52,25.40
2015,08,11,12,53,25.40
2015,08,11,12,54,25.40
2015,08,11,12,55,25.40
2015,08,11,12,56,25.40
2015,08,11,12,57,25.40
2015,08,11,12,58,25.40
2015,08,11,12,59,25.50
2015,08,11,13,00,25.60
2015,08,11,13,01,25.60
2015,08,11,13,02,25.60
2015,08,11,13,03,25.60
2015,08,11,13,04,25.60
2015,08,11,13,05,25.70
2015,08,11,13,06,25.80
2015,08,11,13,07,25.80
2015,08,11,13,08,25.80
2015,08,11,13,09,25.80
2015,08,11,13,10,25.70
2015,08,11,13,11,25.70
2015,08,11,13,12,25.70
2015,08,11,13,13,25.70
2015,08,11,13,14,25.60
2015,08,11,13,15,25.60
2015,08,11,13,16,25.70
2015,08,11,13,17,25.80
2015,08,11,13,18,25.80
2015,08,11,13,19,25.90
2015,08,11,13,20,25.90
2015,08,11,13,21,26.00
2015,08,11,13,22,26.00
2015,08,11,13,23,26.00
2015,08,11,13,24,26.00
2015,08,11,13,25,26.00
2015,08,11,13,26,26.00
2015,08,11,13,27,26.00
2015,08,11,13,28,26.10
2015,08,11,13,29,26.10
2015,08,11,13,30,26.10
2015,08,11,13,31,26.20
2015,08,11,13,32,26.20
2015,08,11,13,33,26.30
2015,08,11,13,34,26.30
2015,08,11,13,35,26.40
2015,08,11,13,36,26.40
2015,08,11,13,37,26.40
2015,08,11,13,38,26.40
2015,08,11,13,39,26.40
2015,08,11,13,40,26.40
2015,08,11,13,41,26.40
2015,08,11,13,42,26.50
2015,08,11,13,43,26.50
2015,08,11,13,44,26.40
2015,08,11,13,45,26.40
2015,08,11,13,46,26.40
2015,08,11,13,47,26.30
2015,08,11,13,48,26.30
2015,08,11,13,49,26.30
2015,08,11,13,50,26.40
2015,08,11,13,51,26.40
2015,08,11,13,52,26.50
2015,08,11,13,53,26.50
2015,08,11,13,54,26.50
2015,08,11,13,55,26.60
2015,08,11,13,56,26.60
2015,08,11,13,57,26.50
2015,08,11,13,58,26.50
2015,08,11,13,59,26.50
2015,08,11,14,00,26.40
2015,08,11,14,01,26.50
2015,08,11,14,02,26.50
2015,08,11,14,03,26.60
2015,08,11,14,04,26.60
2015,08,11,14,05,26.60
2015,08,11,14,06,26.60
2015,08,11,14,07,26.60
2015,08,11,14,08,26.60
2015,08,11,14,09,26.60
2015,08,11,14,10,26.60
2015,08,11,14,11,26.60
2015,08,11,14,12,26.60
2015,08,11,14,13,26.60
2015,08,11,14,14,26.50
2015,08,11,14,15,26.50
2015,08,11,14,16,26.50
2015,08,11,14,17,26.50
2015,08,11,14,18,26.50
2015,08,11,14,19,26.50
2015,08,11,14,20,26.50
2015,08,11,14,21,26.50
2015,08,11,14,22,26.60
2015,08,11,14,23,26.60
2015,08,11,14,24,26.60
2015,08,11,14,25,26.60
2015,08,11,14,26,26.60
2015,08,11,14,27,26.60
2015,08,11,14,28,26.70
2015,08,11,14,29,26.70
2015,08,11,14,30,26.60
2015,08,11,14,31,26.60
2015,08,11,14,32,26.60
2015,08,11,14,33,26.60
2015,08,11,14,34,26.60
2015,08,11,14,35,26.60
2015,08,11,14,36,26.50
2015,08,11,14,37,26.50
2015,08,11,14,38,26.50
2015,08,11,14,39,26.50
2015,08,11,14,40,26.50
2015,08,11,14,41,26.40
2015,08,11,14,42,26.40
2015,08,11,14,43,26.40
2015,08,11,14,44,26.40
2015,08,11,14,45,26.40
2015,08,11,14,46,26.30
2015,08,11,14,47,26.30
2015,08,11,14,48,26.30
2015,08,11,14,49,26.30
2015,08,11,14,50,26.30
2015,08,11,14,51,26.30
2015,08,11,14,52,26.30
2015,08,11,14,53,26.30
2015,08,11,14,54,26.30
2015,08,11,14,55,26.40
2015,08,11,14,56,26.40
2015,08,11,14,57,26.40
2015,08,11,14,58,26.40
2015,08,11,14,59,26.40
2015,08,11,15,00,26.40
2015,08,11,15,01,26.40
2015,08,11,15,02,26.40
2015,08,11,15,03,26.40
2015,08,11,15,04,26.50
2015,08,11,15,05,26.60
2015,08,11,15,06,26.60
2015,08,11,15,07,26.60
2015,08,11,15,08,26.60
2015,08,11,15,09,26.60
2015,08,11,15,10,26.60
2015,08,11,15,11,26.70
2015,08,11,15,12,26.70
2015,08,11,15,13,26.70
2015,08,11,15,14,26.80
2015,08,11,15,15,26.80
2015,08,11,15,16,26.80
2015,08,11,15,17,26.90
2015,08,11,15,18,26.90
2015,08,11,15,19,27.00
2015,08,11,15,20,27.10
2015,08,11,15,21,27.10
2015,08,11,15,22,27.20
2015,08,11,15,23,27.20
2015,08,11,15,24,27.30
2015,08,11,15,25,27.30
2015,08,11,15,26,27.40
2015,08,11,15,27,27.40
2015,08,11,15,28,27.40
2015,08,11,15,29,27.40
2015,08,11,15,30,27.40
2015,08,11,15,31,27.50
2015,08,11,15,32,27.50
2015,08,11,15,33,27.60
2015,08,11,15,34,27.50
2015,08,11,15,35,27.50
2015,08,11,15,36,27.40
2015,08,11,15,37,27.30
2015,08,11,15,38,27.30
2015,08,11,15,39,27.40
2015,08,11,15,40,27.40
2015,08,11,15,41,27.50
2015,08,11,15,42,27.50
2015,08,11,15,43,27.60
2015,08,11,15,44,27.60
2015,08,11,15,45,27.60
2015,08,11,15,46,27.70
2015,08,11,15,47,27.70
2015,08,11,15,48,27.70
2015,08,11,15,49,27.80
2015,08,11,15,50,27.80
2015,08,11,15,51,27.80
2015,08,11,15,52,27.80
2015,08,11,15,53,27.80
2015,08,11,15,54,27.80
2015,08,11,15,55,27.80
2015,08,11,15,56,27.80
2015,08,11,15,57,27.90
2015,08,11,15,58,27.90
2015,08,11,15,59,27.90
2015,08,11,16,00,28.00
2015,08,11,16,01,28.00
2015,08,11,16,02,28.00
2015,08,11,16,03,28.10
2015,08,11,16,04,28.20
2015,08,11,16,05,28.20
2015,08,11,16,06,28.30
2015,08,11,16,07,28.30
2015,08,11,16,08,28.40
2015,08,11,16,09,28.50
2015,08,11,16,10,28.50
2015,08,11,16,11,28.60
2015,08,11,16,12,28.60
2015,08,11,16,13,28.60
2015,08,11,16,14,28.70
2015,08,11,16,15,28.70
2015,08,11,16,16,28.80
2015,08,11,16,17,28.80
2015,08,11,16,18,28.80
2015,08,11,16,19,28.80
2015,08,11,16,20,28.90
2015,08,11,16,21,29.00
2015,08,11,16,22,29.10
2015,08,11,16,23,29.20
2015,08,11,16,24,29.20
2015,08,11,16,25,29.20
2015,08,11,16,26,29.30
2015,08,11,16,27,29.30
2015,08,11,16,28,29.30
2015,08,11,16,29,29.30
2015,08,11,16,30,29.30
2015,08,11,16,31,29.30
2015,08,11,16,32,29.30
2015,08,11,16,33,29.40
2015,08,11,16,34,29.40
2015,08,11,16,35,29.40
2015,08,11,16,36,29.40
2015,08,11,16,37,29.40
2015,08,11,16,38,29.30
2015,08,11,16,39,29.30
2015,08,11,16,40,29.30
2015,08,11,16,41,29.30
2015,08,11,16,42,29.20
2015,08,11,16,43,29.20
2015,08,11,16,44,29.20
2015,08,11,16,45,29.20
2015,08,11,16,46,29.20
2015,08,11,16,47,29.20
2015,08,11,16,48,29.20
2015,08,11,16,49,29.20
2015,08,11,16,50,29.20
2015,08,11,16,51,29.30
2015,08,11,16,52,29.30
2015,08,11,16,53,29.30
2015,08,11,16,54,29.30
2015,08,11,16,55,29.30
2015,08,11,16,56,29.30
2015,08,11,16,57,29.40
2015,08,11,16,58,29.40
2015,08,11,16,59,29.40
2015,08,11,17,00,29.40
2015,08,11,17,01,29.40
2015,08,11,17,02,29.40
2015,08,11,17,03,29.40
2015,08,11,17,04,29.50
2015,08,11,17,05,29.50
2015,08,11,17,06,29.50
2015,08,11,17,07,29.40
2015,08,11,17,08,29.40
2015,08,11,17,09,29.50
2015,08,11,17,10,29.50
2015,08,11,17,11,29.50
2015,08,11,17,12,29.50
2015,08,11,17,13,29.40
2015,08,11,17,14,29.30
2015,08,11,17,15,29.30
2015,08,11,17,16,29.30
2015,08,11,17,17,29.30
2015,08,11,17,18,29.30
2015,08,11,17,19,29.30